Regional Weather Roundup
Issued by NWS

Home | Current Version | Previous Version | Text Only | Print | Product List | Glossary Off
Versions: 1 2 3 4 5 6 7 8 9 10 11 12 13 14 15 16 17 18 19 20 21 22 23 24 25 26 27 28 29 30 31 32 33 34 35 36 37 38 39 40 41 42 43 44 45 46 47 48 49 50

000
ASUS43 KFSD 200410
RWRSD

WEATHER ROUNDUP FOR SOUTH DAKOTA
NATIONAL WEATHER SERVICE SIOUX FALLS SD
1100 PM CDT FRI SEP 19 2014

NOTE: "FAIR" INDICATES FEW OR NO CLOUDS BELOW 12,000 FEET WITH NO
SIGNIFICANT WEATHER AND/OR OBSTRUCTIONS TO VISIBILITY.


SDZ001>005-009-010-012>017-200500-
NORTHWEST AND NORTH CENTRAL SOUTH DAKOTA

CITY           SKY/WX    TMP DP  RH WIND       PRES   REMARKS
BUFFALO          N/A     56  47  71 W10       29.87R
FAITH            N/A     65  50  58 W10       29.89R
MOBRIDGE       MOCLDY    65  54  67 N6        29.79R
$$

SDZ012>016-024>037-041>051-057-063-072>074-200500-
SOUTHWEST AND SOUTH CENTRAL SOUTH DAKOTA

CITY           SKY/WX    TMP DP  RH WIND       PRES   REMARKS
RAPID CTY ARPT PTCLDY    67  48  50 NW8       29.96R
PIERRE         MOCLDY    72  52  49 NW13      29.80R
CUSTER         MOCLDY    58  45  62 CALM      30.07R
ELLSWORTH AFB  CLOUDY    65  50  58 NW6       29.96R
PHILIP         PTCLDY    59  51  75 NW6       29.87R
PINE RIDGE     CLEAR     57  53  86 E5        29.95R
WINNER         FAIR      72  56  57 W3        29.82R
$$

SDZ004>011-016>023-039-040-200500-
NORTHEAST SOUTH DAKOTA

CITY           SKY/WX    TMP DP  RH WIND       PRES   REMARKS
ABERDEEN       CLOUDY    70  53  54 NW9       29.74R
WATERTOWN      CLEAR     67  60  78 W8        29.73S
SISSETON         N/A     72  54  53 W13       29.68R
$$

SDZ017-020-022-023-036>040-048>070-200500-
SOUTHEAST SOUTH DAKOTA

CITY           SKY/WX    TMP DP  RH WIND       PRES   REMARKS
SIOUX FALLS    CLOUDY    72  65  78 NW6       29.73R
HURON          CLEAR     62  55  77 NW6       29.74S
CHAMBERLAIN    PTCLDY    71  56  57 N6        29.79R
MITCHELL       CLEAR     68  59  73 W5        29.75R
YANKTON        MOCLDY    73  64  73 SW6       29.74F
$$

ABBREVIATIONS USED IN REMARKS
   TC - TEMPERATURE IN CELSIUS
  WCI - WIND CHILL INDEX
   HX - HEAT INDEX
  VSB - VISIBILITY




USA.gov is the U.S. government's official web portal to all federal, state and local government web resources and services.